CW8217 Weather Reports


time (UTC)temp
C
wind
direction
speed
KPH
gust
KPH
rain 1hr
cm
rain 24hr
cm
rain mn
cm
humidity
%
barometer
mb
20260503054204 1 320 16.1 32.2 0.00 0.00 0.00 80 1014.9
20260503053706 1 320 16.1 32.2 0.00 0.00 0.00 80 1014.9
20260503053211 1 320 16.1 32.2 0.00 0.00 0.00 79 1014.9
20260502160205 9 320 14.5 32.2 0.00 0.00 0.00 45 1013.5
20260502151704 9 320 12.9 12.9 0.00 0.00 0.00 45 1013.6
20260502151204 9 320 12.9 12.9 0.00 0.00 0.00 46 1013.6
20260502150704 8 320 12.9 12.9 0.00 0.00 0.00 42 1013.6
20260502150204 8 320 12.9 12.9 0.00 0.00 0.00 44 1013.5
20260502130704 6 350 4.8 4.8 0.00 0.00 0.00 48 1013.4
20260502130204 6 348 4.8 4.8 0.00 0.00 0.00 47 1013.6
20260502123204 6 310 4.8 4.8 0.00 0.00 0.00 53 1013.3
20260502122705 5 310 4.8 4.8 0.00 0.00 0.00 51 1013.2
20260502122204 5 310 4.8 4.8 0.00 0.00 0.00 52 1013.2
20260502121704 5 310 4.8 4.8 0.00 0.00 0.00 52 1013.2
20260502121204 5 310 4.8 4.8 0.00 0.00 0.00 51 1013.1
20260502120704 5 310 4.8 4.8 0.00 0.00 0.00 50 1013.0
20260502120204 5 310 4.8 4.8 0.00 0.00 0.00 52 1013.1
20260502115704 5 310 4.8 4.8 0.00 0.00 0.00 54 1012.8
20260502115204 5 310 4.8 4.8 0.00 0.00 0.00 55 1012.9
20260502114704 5 310 4.8 4.8 0.00 0.00 0.00 60 1013.0
20260502114204 5 310 4.8 4.8 0.00 0.00 0.00 60 1013.2
20260502113704 5 310 4.8 4.8 0.00 0.00 0.00 63 1013.3
20260502113205 5 310 4.8 4.8 0.00 0.00 0.00 60 1013.1
20260502112204 5 310 4.8 4.8 0.00 0.00 0.00 62 1013.1
20260502111704 4 310 4.8 4.8 0.00 0.00 0.00 62 1013.1
20260502111204 4 310 4.8 4.8 0.00 0.00 0.00 64 1012.9
20260502110204 4 310 4.8 4.8 0.00 0.00 0.00 64 1012.7
20260502105704 4 310 4.8 4.8 0.00 0.00 0.00 68 1012.8
20260502105204 4 310 4.8 4.8 0.00 0.00 0.00 70 1012.6
20260502104704 4 310 4.8 4.8 0.00 0.00 0.00 69 1012.7
20260502104204 4 310 4.8 4.8 0.00 0.00 0.00 70 1012.7
20260502103204 4 310 4.8 4.8 0.00 0.00 0.00 69 1012.5
20260502102704 4 310 4.8 4.8 0.00 0.00 0.00 69 1012.7
20260502102204 4 310 4.8 4.8 0.00 0.00 0.00 69 1012.6
20260502101704 5 310 4.8 4.8 0.00 0.00 0.00 69 1012.6
20260502101204 5 310 4.8 4.8 0.00 0.00 0.00 69 1012.7
20260502100704 5 310 4.8 4.8 0.00 0.00 0.00 70 1012.7
20260502100204 5 309 8.0 11.3 0.00 0.00 0.00 70 1012.6
20260502090704 6 290 11.3 11.3 0.00 0.00 0.00 75 1013.2
20260502090204 6 291 11.3 12.9 0.00 0.00 0.00 75 1013.2
20260502071204 7 310 9.7 9.7 0.00 0.00 0.00 76 1012.9
20260502070704 7 310 9.7 9.7 0.00 0.00 0.00 76 1012.9
20260502070204 7 312 8.0 9.7 0.00 0.00 0.00 75 1012.9
20260502065704 7 10 8.0 8.0 0.00 0.00 0.00 76 1012.9
20260502065204 7 10 8.0 8.0 0.00 0.00 0.00 75 1012.9
20260502064204 7 10 8.0 8.0 0.00 0.00 0.00 76 1013.1
20260502063704 7 10 8.0 8.0 0.00 0.00 0.00 77 1013.1